Year,Month,Day,Hour,Minute,Value (Times are PST for temperature in C)
2009,07,27,00,00,20.50
2009,07,27,00,01,20.50
2009,07,27,00,02,20.50
2009,07,27,00,03,20.50
2009,07,27,00,04,20.50
2009,07,27,00,05,20.50
2009,07,27,00,06,20.50
2009,07,27,00,07,20.50
2009,07,27,00,08,20.50
2009,07,27,00,09,20.40
2009,07,27,00,10,20.40
2009,07,27,00,11,20.40
2009,07,27,00,12,20.40
2009,07,27,00,13,20.40
2009,07,27,00,14,20.40
2009,07,27,00,15,20.40
2009,07,27,00,16,20.40
2009,07,27,00,17,20.30
2009,07,27,00,18,20.30
2009,07,27,00,19,20.30
2009,07,27,00,20,20.30
2009,07,27,00,21,20.30
2009,07,27,00,22,20.30
2009,07,27,00,23,20.30
2009,07,27,00,24,20.30
2009,07,27,00,25,20.30
2009,07,27,00,26,20.30
2009,07,27,00,27,20.20
2009,07,27,00,28,20.20
2009,07,27,00,29,20.20
2009,07,27,00,30,20.20
2009,07,27,00,31,20.20
2009,07,27,00,32,20.10
2009,07,27,00,33,20.10
2009,07,27,00,34,20.10
2009,07,27,00,35,20.10
2009,07,27,00,36,20.20
2009,07,27,00,37,20.20
2009,07,27,00,38,20.20
2009,07,27,00,39,20.20
2009,07,27,00,40,20.20
2009,07,27,00,41,20.20
2009,07,27,00,42,20.30
2009,07,27,00,43,20.30
2009,07,27,00,44,20.30
2009,07,27,00,45,20.30
2009,07,27,00,46,20.30
2009,07,27,00,47,20.30
2009,07,27,00,48,20.30
2009,07,27,00,49,20.20
2009,07,27,00,50,20.20
2009,07,27,00,51,20.20
2009,07,27,00,52,20.20
2009,07,27,00,53,20.20
2009,07,27,00,54,20.20
2009,07,27,00,55,20.20
2009,07,27,00,56,20.10
2009,07,27,00,57,20.10
2009,07,27,00,58,20.10
2009,07,27,00,59,20.00
2009,07,27,01,00,20.00
2009,07,27,01,01,20.00
2009,07,27,01,02,20.00
2009,07,27,01,03,19.90
2009,07,27,01,04,19.90
2009,07,27,01,05,19.90
2009,07,27,01,06,19.90
2009,07,27,01,07,19.90
2009,07,27,01,08,19.90
2009,07,27,01,09,19.80
2009,07,27,01,10,19.80
2009,07,27,01,11,19.80
2009,07,27,01,12,19.80
2009,07,27,01,13,19.90
2009,07,27,01,14,19.90
2009,07,27,01,15,19.90
2009,07,27,01,16,20.00
2009,07,27,01,17,20.00
2009,07,27,01,18,20.00
2009,07,27,01,19,20.10
2009,07,27,01,20,20.10
2009,07,27,01,21,20.20
2009,07,27,01,22,20.20
2009,07,27,01,23,20.20
2009,07,27,01,24,20.20
2009,07,27,01,25,20.20
2009,07,27,01,26,20.20
2009,07,27,01,27,20.20
2009,07,27,01,28,20.10
2009,07,27,01,29,20.10
2009,07,27,01,30,20.10
2009,07,27,01,31,20.00
2009,07,27,01,32,19.90
2009,07,27,01,33,19.90
2009,07,27,01,34,19.90
2009,07,27,01,35,19.80
2009,07,27,01,36,19.80
2009,07,27,01,37,19.80
2009,07,27,01,38,19.80
2009,07,27,01,39,19.80
2009,07,27,01,40,19.80
2009,07,27,01,41,19.80
2009,07,27,01,42,19.80
2009,07,27,01,43,19.70
2009,07,27,01,44,19.70
2009,07,27,01,45,19.60
2009,07,27,01,46,19.50
2009,07,27,01,47,19.50
2009,07,27,01,48,19.40
2009,07,27,01,49,19.40
2009,07,27,01,50,19.30
2009,07,27,01,51,19.30
2009,07,27,01,52,19.20
2009,07,27,01,53,19.20
2009,07,27,01,54,19.20
2009,07,27,01,55,19.10
2009,07,27,01,56,19.10
2009,07,27,01,57,19.10
2009,07,27,01,58,19.10
2009,07,27,01,59,19.10
2009,07,27,02,00,19.20
2009,07,27,02,01,19.20
2009,07,27,02,02,19.20
2009,07,27,02,03,19.30
2009,07,27,02,04,19.30
2009,07,27,02,05,19.40
2009,07,27,02,06,19.40
2009,07,27,02,07,19.50
2009,07,27,02,08,19.60
2009,07,27,02,09,19.60
2009,07,27,02,10,19.70
2009,07,27,02,11,19.80
2009,07,27,02,12,19.80
2009,07,27,02,13,19.80
2009,07,27,02,14,19.90
2009,07,27,02,15,19.90
2009,07,27,02,16,19.90
2009,07,27,02,17,19.90
2009,07,27,02,18,19.90
2009,07,27,02,19,19.90
2009,07,27,02,20,20.00
2009,07,27,02,21,20.00
2009,07,27,02,22,20.00
2009,07,27,02,23,20.00
2009,07,27,02,24,20.00
2009,07,27,02,25,20.00
2009,07,27,02,26,20.00
2009,07,27,02,27,20.00
2009,07,27,02,28,20.00
2009,07,27,02,29,20.00
2009,07,27,02,30,19.90
2009,07,27,02,31,19.90
2009,07,27,02,32,19.90
2009,07,27,02,33,19.90
2009,07,27,02,34,19.90
2009,07,27,02,35,19.90
2009,07,27,02,36,19.90
2009,07,27,02,37,19.90
2009,07,27,02,38,19.80
2009,07,27,02,39,19.80
2009,07,27,02,40,19.80
2009,07,27,02,41,19.80
2009,07,27,02,42,19.80
2009,07,27,02,43,19.80
2009,07,27,02,44,19.80
2009,07,27,02,45,19.80
2009,07,27,02,46,19.70
2009,07,27,02,47,19.70
2009,07,27,02,48,19.70
2009,07,27,02,49,19.70
2009,07,27,02,50,19.70
2009,07,27,02,51,19.70
2009,07,27,02,52,19.70
2009,07,27,02,53,19.70
2009,07,27,02,54,19.60
2009,07,27,02,55,19.60
2009,07,27,02,56,19.60
2009,07,27,02,57,19.60
2009,07,27,02,58,19.60
2009,07,27,02,59,19.50
2009,07,27,03,00,19.50
2009,07,27,03,01,19.50
2009,07,27,03,02,19.50
2009,07,27,03,03,19.50
2009,07,27,03,04,19.50
2009,07,27,03,05,19.50
2009,07,27,03,06,19.50
2009,07,27,03,07,19.50
2009,07,27,03,08,19.50
2009,07,27,03,09,19.40
2009,07,27,03,10,19.40
2009,07,27,03,11,19.40
2009,07,27,03,12,19.40
2009,07,27,03,13,19.40
2009,07,27,03,14,19.40
2009,07,27,03,15,19.40
2009,07,27,03,16,19.40
2009,07,27,03,17,19.30
2009,07,27,03,18,19.30
2009,07,27,03,19,19.30
2009,07,27,03,20,19.30
2009,07,27,03,21,19.30
2009,07,27,03,22,19.30
2009,07,27,03,23,19.30
2009,07,27,03,24,19.30
2009,07,27,03,25,19.20
2009,07,27,03,26,19.20
2009,07,27,03,27,19.20
2009,07,27,03,28,19.20
2009,07,27,03,29,19.20
2009,07,27,03,30,19.20
2009,07,27,03,31,19.20
2009,07,27,03,32,19.20
2009,07,27,03,33,19.20
2009,07,27,03,34,19.20
2009,07,27,03,35,19.20
2009,07,27,03,36,19.10
2009,07,27,03,37,19.10
2009,07,27,03,38,19.10
2009,07,27,03,39,19.10
2009,07,27,03,40,19.10
2009,07,27,03,41,19.10
2009,07,27,03,42,19.10
2009,07,27,03,43,19.10
2009,07,27,03,44,19.10
2009,07,27,03,45,19.10
2009,07,27,03,46,19.10
2009,07,27,03,47,19.10
2009,07,27,03,48,19.10
2009,07,27,03,49,19.10
2009,07,27,03,50,19.10
2009,07,27,03,51,19.10
2009,07,27,03,52,19.10
2009,07,27,03,53,19.10
2009,07,27,03,54,19.10
2009,07,27,03,55,19.10
2009,07,27,03,56,19.10
2009,07,27,03,57,19.10
2009,07,27,03,58,19.10
2009,07,27,03,59,19.10
2009,07,27,04,00,19.20
2009,07,27,04,01,19.20
2009,07,27,04,02,19.20
2009,07,27,04,03,19.20
2009,07,27,04,04,19.20
2009,07,27,04,05,19.20
2009,07,27,04,06,19.20
2009,07,27,04,07,19.20
2009,07,27,04,08,19.20
2009,07,27,04,09,19.20
2009,07,27,04,10,19.20
2009,07,27,04,11,19.20
2009,07,27,04,12,19.30
2009,07,27,04,13,19.30
2009,07,27,04,14,19.30
2009,07,27,04,15,19.30
2009,07,27,04,16,19.30
2009,07,27,04,17,19.30
2009,07,27,04,18,19.30
2009,07,27,04,19,19.30
2009,07,27,04,20,19.30
2009,07,27,04,21,19.30
2009,07,27,04,22,19.30
2009,07,27,04,23,19.30
2009,07,27,04,24,19.30
2009,07,27,04,25,19.30
2009,07,27,04,26,19.30
2009,07,27,04,27,19.30
2009,07,27,04,28,19.30
2009,07,27,04,29,19.30
2009,07,27,04,30,19.30
2009,07,27,04,31,19.30
2009,07,27,04,32,19.30
2009,07,27,04,33,19.30
2009,07,27,04,34,19.30
2009,07,27,04,35,19.30
2009,07,27,04,36,19.30
2009,07,27,04,37,19.30
2009,07,27,04,38,19.40
2009,07,27,04,39,19.40
2009,07,27,04,40,19.50
2009,07,27,04,41,19.50
2009,07,27,04,42,19.60
2009,07,27,04,43,19.60
2009,07,27,04,44,19.60
2009,07,27,04,45,19.60
2009,07,27,04,46,19.60
2009,07,27,04,47,19.70
2009,07,27,04,48,19.70
2009,07,27,04,49,19.70
2009,07,27,04,50,19.80
2009,07,27,04,51,19.90
2009,07,27,04,52,20.00
2009,07,27,04,53,20.00
2009,07,27,04,54,20.00
2009,07,27,04,55,20.00
2009,07,27,04,56,20.10
2009,07,27,04,57,20.20
2009,07,27,04,58,20.20
2009,07,27,04,59,20.30
2009,07,27,05,00,20.30
2009,07,27,05,01,20.30
2009,07,27,05,02,20.30
2009,07,27,05,03,20.30
2009,07,27,05,04,20.40
2009,07,27,05,05,20.30
2009,07,27,05,06,20.30
2009,07,27,05,07,20.30
2009,07,27,05,08,20.30
2009,07,27,05,09,20.40
2009,07,27,05,10,20.40
2009,07,27,05,11,20.40
2009,07,27,05,12,20.40
2009,07,27,05,13,20.40
2009,07,27,05,14,20.40
2009,07,27,05,15,20.40
2009,07,27,05,16,20.50
2009,07,27,05,17,20.50
2009,07,27,05,18,20.60
2009,07,27,05,19,20.60
2009,07,27,05,20,20.60
2009,07,27,05,21,20.60
2009,07,27,05,22,20.70
2009,07,27,05,23,20.70
2009,07,27,05,24,20.70
2009,07,27,05,25,20.70
2009,07,27,05,26,20.70
2009,07,27,05,27,20.70
2009,07,27,05,28,20.80
2009,07,27,05,29,20.80
2009,07,27,05,30,20.80
2009,07,27,05,31,20.80
2009,07,27,05,32,20.80
2009,07,27,05,33,20.80
2009,07,27,05,34,20.80
2009,07,27,05,35,20.80
2009,07,27,05,36,20.80
2009,07,27,05,37,20.80
2009,07,27,05,38,20.80
2009,07,27,05,39,20.70
2009,07,27,05,40,20.70
2009,07,27,05,41,20.70
2009,07,27,05,42,20.70
2009,07,27,05,43,20.60
2009,07,27,05,44,20.60
2009,07,27,05,45,20.60
2009,07,27,05,46,20.50
2009,07,27,05,47,20.50
2009,07,27,05,48,20.50
2009,07,27,05,49,20.50
2009,07,27,05,50,20.40
2009,07,27,05,51,20.40
2009,07,27,05,52,20.40
2009,07,27,05,53,20.40
2009,07,27,05,54,20.40
2009,07,27,05,55,20.30
2009,07,27,05,56,20.30
2009,07,27,05,57,20.30
2009,07,27,05,58,20.30
2009,07,27,05,59,20.30
2009,07,27,06,00,20.30
2009,07,27,06,01,20.30
2009,07,27,06,02,20.30
2009,07,27,06,03,20.30
2009,07,27,06,04,20.30
2009,07,27,06,05,20.30
2009,07,27,06,06,20.30
2009,07,27,06,07,20.30
2009,07,27,06,08,20.30
2009,07,27,06,09,20.30
2009,07,27,06,10,20.30
2009,07,27,06,11,20.30
2009,07,27,06,12,20.30
2009,07,27,06,13,20.30
2009,07,27,06,14,20.30
2009,07,27,06,15,20.30
2009,07,27,06,16,20.30
2009,07,27,06,17,20.40
2009,07,27,06,18,20.40
2009,07,27,06,19,20.40
2009,07,27,06,20,20.40
2009,07,27,06,21,20.40
2009,07,27,06,22,20.40
2009,07,27,06,23,20.40
2009,07,27,06,24,20.40
2009,07,27,06,25,20.40
2009,07,27,06,26,20.50
2009,07,27,06,27,20.50
2009,07,27,06,28,20.50
2009,07,27,06,29,20.60
2009,07,27,06,30,20.60
2009,07,27,06,31,20.60
2009,07,27,06,32,20.60
2009,07,27,06,33,20.60
2009,07,27,06,34,20.60
2009,07,27,06,35,20.60
2009,07,27,06,36,20.60
2009,07,27,06,37,20.70
2009,07,27,06,38,20.70
2009,07,27,06,39,20.70
2009,07,27,06,40,20.70
2009,07,27,06,41,20.70
2009,07,27,06,42,20.70
2009,07,27,06,43,20.70
2009,07,27,06,44,20.70
2009,07,27,06,45,20.70
2009,07,27,06,46,20.70
2009,07,27,06,47,20.70
2009,07,27,06,48,20.70
2009,07,27,06,49,20.80
2009,07,27,06,50,20.80
2009,07,27,06,51,20.80
2009,07,27,06,52,20.80
2009,07,27,06,53,20.80
2009,07,27,06,54,20.80
2009,07,27,06,55,20.80
2009,07,27,06,56,20.90
2009,07,27,06,57,20.90
2009,07,27,06,58,20.90
2009,07,27,06,59,20.90
2009,07,27,07,00,20.90
2009,07,27,07,01,20.90
2009,07,27,07,02,20.90
2009,07,27,07,03,20.90
2009,07,27,07,04,20.90
2009,07,27,07,05,21.00
2009,07,27,07,06,21.00
2009,07,27,07,07,21.00
2009,07,27,07,08,21.00
2009,07,27,07,09,21.00
2009,07,27,07,10,21.00
2009,07,27,07,11,21.10
2009,07,27,07,12,21.10
2009,07,27,07,13,21.10
2009,07,27,07,14,21.10
2009,07,27,07,15,21.20
2009,07,27,07,16,21.20
2009,07,27,07,17,21.20
2009,07,27,07,18,21.30
2009,07,27,07,19,21.30
2009,07,27,07,20,21.30
2009,07,27,07,21,21.40
2009,07,27,07,22,21.40
2009,07,27,07,23,21.50
2009,07,27,07,24,21.50
2009,07,27,07,25,21.60
2009,07,27,07,26,21.60
2009,07,27,07,27,21.70
2009,07,27,07,28,21.70
2009,07,27,07,29,21.80
2009,07,27,07,30,21.80
2009,07,27,07,31,21.80
2009,07,27,07,32,21.80
2009,07,27,07,33,21.90
2009,07,27,07,34,21.90
2009,07,27,07,35,21.90
2009,07,27,07,36,21.90
2009,07,27,07,37,21.90
2009,07,27,07,38,22.00
2009,07,27,07,39,22.00
2009,07,27,07,40,22.00
2009,07,27,07,41,22.00
2009,07,27,07,42,22.10
2009,07,27,07,43,22.10
2009,07,27,07,44,22.10
2009,07,27,07,45,22.10
2009,07,27,07,46,22.10
2009,07,27,07,47,22.10
2009,07,27,07,48,22.10
2009,07,27,07,49,22.20
2009,07,27,07,50,22.20
2009,07,27,07,51,22.20
2009,07,27,07,52,22.20
2009,07,27,07,53,22.20
2009,07,27,07,54,22.20
2009,07,27,07,55,22.20
2009,07,27,07,56,22.20
2009,07,27,07,57,22.20
2009,07,27,07,58,22.30
2009,07,27,07,59,22.30
2009,07,27,08,00,22.30
2009,07,27,08,01,22.40
2009,07,27,08,02,22.40
2009,07,27,08,03,22.30
2009,07,27,08,04,22.40
2009,07,27,08,05,22.40
2009,07,27,08,06,22.40
2009,07,27,08,07,22.40
2009,07,27,08,08,22.40
2009,07,27,08,09,22.40
2009,07,27,08,10,22.40
2009,07,27,08,11,22.50
2009,07,27,08,12,22.50
2009,07,27,08,13,22.50
2009,07,27,08,14,22.60
2009,07,27,08,15,22.60
2009,07,27,08,16,22.60
2009,07,27,08,17,22.60
2009,07,27,08,18,22.70
2009,07,27,08,19,22.70
2009,07,27,08,20,22.70
2009,07,27,08,21,22.80
2009,07,27,08,22,22.80
2009,07,27,08,23,22.80
2009,07,27,08,24,22.80
2009,07,27,08,25,22.90
2009,07,27,08,26,22.90
2009,07,27,08,27,23.00
2009,07,27,08,28,23.00
2009,07,27,08,29,23.00
2009,07,27,08,30,23.00
2009,07,27,08,31,23.00
2009,07,27,08,32,23.00
2009,07,27,08,33,23.00
2009,07,27,08,34,23.10
2009,07,27,08,35,23.10
2009,07,27,08,36,23.10
2009,07,27,08,37,23.20
2009,07,27,08,38,23.20
2009,07,27,08,39,23.30
2009,07,27,08,40,23.30
2009,07,27,08,41,23.30
2009,07,27,08,42,23.30
2009,07,27,08,43,23.30
2009,07,27,08,44,23.30
2009,07,27,08,45,23.30
2009,07,27,08,46,23.40
2009,07,27,08,47,23.40
2009,07,27,08,48,23.50
2009,07,27,08,49,23.50
2009,07,27,08,50,23.60
2009,07,27,08,51,23.60
2009,07,27,08,52,23.50
2009,07,27,08,53,23.50
2009,07,27,08,54,23.50
2009,07,27,08,55,23.40
2009,07,27,08,56,23.40
2009,07,27,08,57,23.40
2009,07,27,08,58,23.40
2009,07,27,08,59,23.40
2009,07,27,09,00,23.30
2009,07,27,09,01,23.30
2009,07,27,09,02,23.40
2009,07,27,09,03,23.40
2009,07,27,09,04,23.40
2009,07,27,09,05,23.40
2009,07,27,09,06,23.50
2009,07,27,09,07,23.60
2009,07,27,09,08,23.60
2009,07,27,09,09,23.70
2009,07,27,09,10,23.70
2009,07,27,09,11,23.70
2009,07,27,09,12,23.70
2009,07,27,09,13,23.70
2009,07,27,09,14,23.70
2009,07,27,09,15,23.70
2009,07,27,09,16,23.70
2009,07,27,09,17,23.70
2009,07,27,09,18,23.70
2009,07,27,09,19,23.70
2009,07,27,09,20,23.60
2009,07,27,09,21,23.60
2009,07,27,09,22,23.70
2009,07,27,09,23,23.70
2009,07,27,09,24,23.80
2009,07,27,09,25,23.80
2009,07,27,09,26,23.90
2009,07,27,09,27,24.00
2009,07,27,09,28,24.10
2009,07,27,09,29,24.10
2009,07,27,09,30,24.20
2009,07,27,09,31,24.20
2009,07,27,09,32,24.30
2009,07,27,09,33,24.30
2009,07,27,09,34,24.30
2009,07,27,09,35,24.30
2009,07,27,09,36,24.30
2009,07,27,09,37,24.30
2009,07,27,09,38,24.30
2009,07,27,09,39,24.20
2009,07,27,09,40,24.10
2009,07,27,09,41,24.00
2009,07,27,09,42,23.90
2009,07,27,09,43,23.90
2009,07,27,09,44,23.80
2009,07,27,09,45,23.90
2009,07,27,09,46,23.90
2009,07,27,09,47,23.90
2009,07,27,09,48,24.00
2009,07,27,09,49,24.00
2009,07,27,09,50,24.10
2009,07,27,09,51,24.10
2009,07,27,09,52,24.20
2009,07,27,09,53,24.20
2009,07,27,09,54,24.20
2009,07,27,09,55,24.30
2009,07,27,09,56,24.30
2009,07,27,09,57,24.40
2009,07,27,09,58,24.40
2009,07,27,09,59,24.40
2009,07,27,10,00,24.40
2009,07,27,10,01,24.30
2009,07,27,10,02,24.30
2009,07,27,10,03,24.30
2009,07,27,10,04,24.30
2009,07,27,10,05,24.30
2009,07,27,10,06,24.30
2009,07,27,10,07,24.30
2009,07,27,10,08,24.30
2009,07,27,10,09,24.30
2009,07,27,10,10,24.30
2009,07,27,10,11,24.30
2009,07,27,10,12,24.30
2009,07,27,10,13,24.30
2009,07,27,10,14,24.30
2009,07,27,10,15,24.30
2009,07,27,10,16,24.30
2009,07,27,10,17,24.40
2009,07,27,10,18,24.50
2009,07,27,10,19,24.50
2009,07,27,10,20,24.60
2009,07,27,10,21,24.70
2009,07,27,10,22,24.80
2009,07,27,10,23,24.80
2009,07,27,10,24,24.90
2009,07,27,10,25,25.00
2009,07,27,10,26,25.00
2009,07,27,10,27,25.00
2009,07,27,10,28,25.00
2009,07,27,10,29,25.00
2009,07,27,10,30,25.00
2009,07,27,10,31,25.00
2009,07,27,10,32,25.00
2009,07,27,10,33,25.00
2009,07,27,10,34,25.00
2009,07,27,10,35,24.90
2009,07,27,10,36,24.90
2009,07,27,10,37,24.90
2009,07,27,10,38,24.80
2009,07,27,10,39,24.80
2009,07,27,10,40,24.70
2009,07,27,10,41,24.70
2009,07,27,10,42,24.70
2009,07,27,10,43,24.70
2009,07,27,10,44,24.70
2009,07,27,10,45,24.70
2009,07,27,10,46,24.70
2009,07,27,10,47,24.80
2009,07,27,10,48,24.80
2009,07,27,10,49,24.80
2009,07,27,10,50,24.90
2009,07,27,10,51,24.90
2009,07,27,10,52,25.00
2009,07,27,10,53,25.10
2009,07,27,10,54,25.10
2009,07,27,10,55,25.10
2009,07,27,10,56,25.10
2009,07,27,10,57,25.10
2009,07,27,10,58,25.10
2009,07,27,10,59,25.10
2009,07,27,11,00,25.10
2009,07,27,11,01,25.20
2009,07,27,11,02,25.20
2009,07,27,11,03,25.20
2009,07,27,11,04,25.30
2009,07,27,11,05,25.30
2009,07,27,11,06,25.30
2009,07,27,11,07,25.40
2009,07,27,11,08,25.40
2009,07,27,11,09,25.40
2009,07,27,11,10,25.50
2009,07,27,11,11,25.60
2009,07,27,11,12,25.60
2009,07,27,11,13,25.70
2009,07,27,11,14,25.80
2009,07,27,11,15,25.90
2009,07,27,11,16,25.90
2009,07,27,11,17,26.00
2009,07,27,11,18,26.00
2009,07,27,11,19,26.10
2009,07,27,11,20,26.10
2009,07,27,11,21,26.20
2009,07,27,11,22,26.20
2009,07,27,11,23,26.30
2009,07,27,11,24,26.30
2009,07,27,11,25,26.20
2009,07,27,11,26,26.20
2009,07,27,11,27,26.10
2009,07,27,11,28,26.00
2009,07,27,11,29,26.00
2009,07,27,11,30,25.90
2009,07,27,11,31,25.90
2009,07,27,11,32,25.90
2009,07,27,11,33,25.90
2009,07,27,11,34,25.90
2009,07,27,11,35,25.90
2009,07,27,11,36,25.90
2009,07,27,11,37,25.90
2009,07,27,11,38,25.90
2009,07,27,11,39,25.90
2009,07,27,11,40,25.80
2009,07,27,11,41,25.80
2009,07,27,11,42,25.80
2009,07,27,11,43,25.80
2009,07,27,11,44,25.80
2009,07,27,11,45,25.90
2009,07,27,11,46,25.90
2009,07,27,11,47,25.90
2009,07,27,11,48,25.90
2009,07,27,11,49,25.90
2009,07,27,11,50,26.00
2009,07,27,11,51,26.10
2009,07,27,11,52,26.10
2009,07,27,11,53,26.20
2009,07,27,11,54,26.30
2009,07,27,11,55,26.30
2009,07,27,11,56,26.40
2009,07,27,11,57,26.40
2009,07,27,11,58,26.40
2009,07,27,11,59,26.40
2009,07,27,12,00,26.40
2009,07,27,12,01,26.40
2009,07,27,12,02,26.40
2009,07,27,12,03,26.40
2009,07,27,12,04,26.40
2009,07,27,12,05,26.30
2009,07,27,12,06,26.30
2009,07,27,12,07,26.20
2009,07,27,12,08,26.10
2009,07,27,12,09,26.00
2009,07,27,12,10,26.00
2009,07,27,12,11,25.90
2009,07,27,12,12,25.90
2009,07,27,12,13,25.90
2009,07,27,12,14,25.80
2009,07,27,12,15,25.70
2009,07,27,12,16,25.70
2009,07,27,12,17,25.50
2009,07,27,12,18,25.40
2009,07,27,12,19,25.30
2009,07,27,12,20,25.30
2009,07,27,12,21,25.20
2009,07,27,12,22,25.20
2009,07,27,12,23,25.20
2009,07,27,12,24,25.10
2009,07,27,12,25,25.10
2009,07,27,12,26,25.10
2009,07,27,12,27,25.10
2009,07,27,12,28,25.10
2009,07,27,12,29,25.10
2009,07,27,12,30,25.10
2009,07,27,12,31,25.20
2009,07,27,12,32,25.30
2009,07,27,12,33,25.30
2009,07,27,12,34,25.40
2009,07,27,12,35,25.40
2009,07,27,12,36,25.30
2009,07,27,12,37,25.20
2009,07,27,12,38,25.10
2009,07,27,12,39,25.00
2009,07,27,12,40,24.80
2009,07,27,12,41,24.70
2009,07,27,12,42,24.60
2009,07,27,12,43,24.50
2009,07,27,12,44,24.40
2009,07,27,12,45,24.40
2009,07,27,12,46,24.40
2009,07,27,12,47,24.40
2009,07,27,12,48,24.40
2009,07,27,12,49,24.40
2009,07,27,12,50,24.40
2009,07,27,12,51,24.50
2009,07,27,12,52,24.60
2009,07,27,12,53,24.70
2009,07,27,12,54,24.70
2009,07,27,12,55,24.80
2009,07,27,12,56,24.90
2009,07,27,12,57,25.00
2009,07,27,12,58,25.10
2009,07,27,12,59,25.20
2009,07,27,13,00,25.30
2009,07,27,13,01,25.40
2009,07,27,13,02,25.40
2009,07,27,13,03,25.50
2009,07,27,13,04,25.60
2009,07,27,13,05,25.60
2009,07,27,13,06,25.70
2009,07,27,13,07,25.70
2009,07,27,13,08,25.70
2009,07,27,13,09,25.80
2009,07,27,13,10,25.80
2009,07,27,13,11,25.80
2009,07,27,13,12,25.80
2009,07,27,13,13,25.80
2009,07,27,13,14,25.80
2009,07,27,13,15,25.70
2009,07,27,13,16,25.70
2009,07,27,13,17,25.60
2009,07,27,13,18,25.60
2009,07,27,13,19,25.60
2009,07,27,13,20,25.60
2009,07,27,13,21,25.70
2009,07,27,13,22,25.70
2009,07,27,13,23,25.60
2009,07,27,13,24,25.60
2009,07,27,13,25,25.60
2009,07,27,13,26,25.60
2009,07,27,13,27,25.60
2009,07,27,13,28,25.60
2009,07,27,13,29,25.60
2009,07,27,13,30,25.60
2009,07,27,13,31,25.60
2009,07,27,13,32,25.70
2009,07,27,13,33,25.70
2009,07,27,13,34,25.70
2009,07,27,13,35,25.70
2009,07,27,13,36,25.80
2009,07,27,13,37,25.80
2009,07,27,13,38,25.80
2009,07,27,13,39,25.70
2009,07,27,13,40,25.70
2009,07,27,13,41,25.60
2009,07,27,13,42,25.60
2009,07,27,13,43,25.60
2009,07,27,13,44,25.60
2009,07,27,13,45,25.60
2009,07,27,13,46,25.60
2009,07,27,13,47,25.60
2009,07,27,13,48,25.60
2009,07,27,13,49,25.60
2009,07,27,13,50,25.60
2009,07,27,13,51,25.60
2009,07,27,13,52,25.60
2009,07,27,13,53,25.60
2009,07,27,13,54,25.60
2009,07,27,13,55,25.60
2009,07,27,13,56,25.60
2009,07,27,13,57,25.70
2009,07,27,13,58,25.70
2009,07,27,13,59,25.70
2009,07,27,14,00,25.70
2009,07,27,14,01,25.70
2009,07,27,14,02,25.70
2009,07,27,14,03,25.80
2009,07,27,14,04,25.80
2009,07,27,14,05,25.80
2009,07,27,14,06,25.80
2009,07,27,14,07,25.90
2009,07,27,14,08,25.90
2009,07,27,14,09,26.00
2009,07,27,14,10,26.10
2009,07,27,14,11,26.20
2009,07,27,14,12,26.30
2009,07,27,14,13,26.40
2009,07,27,14,14,26.50
2009,07,27,14,15,26.50
2009,07,27,14,16,26.50
2009,07,27,14,17,26.50
2009,07,27,14,18,26.60
2009,07,27,14,19,26.60
2009,07,27,14,20,26.60
2009,07,27,14,21,26.60
2009,07,27,14,22,26.60
2009,07,27,14,23,26.60
2009,07,27,14,24,26.50
2009,07,27,14,25,26.50
2009,07,27,14,26,26.40
2009,07,27,14,27,26.40
2009,07,27,14,28,26.20
2009,07,27,14,29,25.90
2009,07,27,14,30,25.70
2009,07,27,14,31,25.60
2009,07,27,14,32,25.40
2009,07,27,14,33,25.30
2009,07,27,14,34,25.10
2009,07,27,14,35,25.00
2009,07,27,14,36,24.90
2009,07,27,14,37,24.90
2009,07,27,14,38,24.90
2009,07,27,14,39,25.10
2009,07,27,14,40,25.20
2009,07,27,14,41,25.30
2009,07,27,14,42,25.40
2009,07,27,14,43,25.40
2009,07,27,14,44,25.30
2009,07,27,14,45,25.30
2009,07,27,14,46,25.30
2009,07,27,14,47,25.30
2009,07,27,14,48,25.20
2009,07,27,14,49,25.30
2009,07,27,14,50,25.30
2009,07,27,14,51,25.40
2009,07,27,14,52,25.50
2009,07,27,14,53,25.60
2009,07,27,14,54,25.70
2009,07,27,14,55,25.70
2009,07,27,14,56,25.70
2009,07,27,14,57,25.60
2009,07,27,14,58,25.60
2009,07,27,14,59,25.60
2009,07,27,15,00,25.70
2009,07,27,15,01,25.70
2009,07,27,15,02,25.80
2009,07,27,15,03,25.80
2009,07,27,15,04,25.90
2009,07,27,15,05,25.90
2009,07,27,15,06,25.90
2009,07,27,15,07,26.00
2009,07,27,15,08,26.10
2009,07,27,15,09,26.10
2009,07,27,15,10,25.90
2009,07,27,15,11,25.90
2009,07,27,15,12,25.70
2009,07,27,15,13,25.70
2009,07,27,15,14,25.50
2009,07,27,15,15,25.50
2009,07,27,15,16,25.40
2009,07,27,15,17,25.40
2009,07,27,15,18,25.30
2009,07,27,15,19,25.30
2009,07,27,15,20,25.30
2009,07,27,15,21,25.30
2009,07,27,15,22,25.30
2009,07,27,15,23,25.40
2009,07,27,15,24,25.40
2009,07,27,15,25,25.40
2009,07,27,15,26,25.40
2009,07,27,15,27,25.50
2009,07,27,15,28,25.40
2009,07,27,15,29,25.40
2009,07,27,15,30,25.40
2009,07,27,15,31,25.40
2009,07,27,15,32,25.40
2009,07,27,15,33,25.40
2009,07,27,15,34,25.40
2009,07,27,15,35,25.40
2009,07,27,15,36,25.40
2009,07,27,15,37,25.40
2009,07,27,15,38,25.40
2009,07,27,15,39,25.50
2009,07,27,15,40,25.50
2009,07,27,15,41,25.50
2009,07,27,15,42,25.60
2009,07,27,15,43,25.70
2009,07,27,15,44,25.80
2009,07,27,15,45,25.80
2009,07,27,15,46,25.80
2009,07,27,15,47,25.80
2009,07,27,15,48,25.80
2009,07,27,15,49,25.70
2009,07,27,15,50,25.70
2009,07,27,15,51,25.60
2009,07,27,15,52,25.50
2009,07,27,15,53,25.40
2009,07,27,15,54,25.40
2009,07,27,15,55,25.50
2009,07,27,15,56,25.50
2009,07,27,15,57,25.60
2009,07,27,15,58,25.60
2009,07,27,15,59,25.60
2009,07,27,16,00,25.70
2009,07,27,16,01,25.70
2009,07,27,16,02,25.80
2009,07,27,16,03,25.90
2009,07,27,16,04,25.90
2009,07,27,16,05,26.10
2009,07,27,16,06,26.20
2009,07,27,16,07,26.30
2009,07,27,16,08,26.30
2009,07,27,16,09,26.30
2009,07,27,16,10,26.20
2009,07,27,16,11,26.20
2009,07,27,16,12,26.20
2009,07,27,16,13,26.20
2009,07,27,16,14,26.20
2009,07,27,16,15,26.20
2009,07,27,16,16,26.20
2009,07,27,16,17,26.20
2009,07,27,16,18,26.20
2009,07,27,16,19,26.20
2009,07,27,16,20,26.10
2009,07,27,16,21,26.10
2009,07,27,16,22,26.10
2009,07,27,16,23,26.10
2009,07,27,16,24,26.10
2009,07,27,16,25,26.00
2009,07,27,16,26,26.00
2009,07,27,16,27,26.00
2009,07,27,16,28,25.90
2009,07,27,16,29,25.90
2009,07,27,16,30,25.90
2009,07,27,16,31,25.90
2009,07,27,16,32,25.90
2009,07,27,16,33,25.90
2009,07,27,16,34,25.90
2009,07,27,16,35,25.90
2009,07,27,16,36,25.80
2009,07,27,16,37,25.80
2009,07,27,16,38,25.70
2009,07,27,16,39,25.70
2009,07,27,16,40,25.70
2009,07,27,16,41,25.60
2009,07,27,16,42,25.60
2009,07,27,16,43,25.50
2009,07,27,16,44,25.50
2009,07,27,16,45,25.40
2009,07,27,16,46,25.50
2009,07,27,16,47,25.50
2009,07,27,16,48,25.50
2009,07,27,16,49,25.60
2009,07,27,16,50,25.60
2009,07,27,16,51,25.60
2009,07,27,16,52,25.60
2009,07,27,16,53,25.60
2009,07,27,16,54,25.60
2009,07,27,16,55,25.60
2009,07,27,16,56,25.50
2009,07,27,16,57,25.40
2009,07,27,16,58,25.40
2009,07,27,16,59,25.40
2009,07,27,17,00,25.40
2009,07,27,17,01,25.30
2009,07,27,17,02,25.30
2009,07,27,17,03,25.30
2009,07,27,17,04,25.30
2009,07,27,17,05,25.30
2009,07,27,17,06,25.30
2009,07,27,17,07,25.30
2009,07,27,17,08,25.30
2009,07,27,17,09,25.30
2009,07,27,17,10,25.30
2009,07,27,17,11,25.40
2009,07,27,17,12,25.40
2009,07,27,17,13,25.40
2009,07,27,17,14,25.50
2009,07,27,17,15,25.60
2009,07,27,17,16,25.60
2009,07,27,17,17,25.60
2009,07,27,17,18,25.70
2009,07,27,17,19,25.70